#timestamp,LO_Frequency,Hit,StdDev 
1542574815.7,286047007.3,N
1542574835.5,286047002.9,N
1542574855.4,286047003.2,N
1542574875.2,286047001.4,N
1542574895.1,286046998.1,N
1542574896.0,286046998.1,N
1542574915.8,286046998.8,N
1542574935.6,286046999.2,N
1542574955.5,286046996.5,N
1542574975.3,286046998.4,N
1542574995.1,286047000.4,N
1542575015.9,286046998.9,N
1542575035.7,286046999.1,N
1542575055.6,286046999.2,N
1542575075.4,286046995.5,N
1542575095.2,286046995.1,N
1542575115.1,286046995.8,N
1542575116.0,286046995.8,N
1542575135.8,286046999.2,N
1542575155.6,286046996.6,N
1542575175.5,286046999.1,N
1542575195.3,286046998.6,N
1542575215.1,286046995.0,N
1542575235.9,286046995.1,N
1542575255.7,286046995.9,N
1542575275.6,286046998.1,N
1542575295.4,286047003.0,N
1542575315.2,286047003.3,N
1542575335.1,286047007.2,N
1542575336.0,286047007.2,N
1542575355.8,286047004.9,N
1542575375.6,286047001.6,N
1542575395.5,286047001.2,N
1542575415.3,286046997.7,N
1542575435.2,286046992.4,N
1542575455.9,286046994.2,N
1542575475.7,286046992.4,N
1542575495.6,286046994.5,N
1542575515.4,286046996.7,N
1542575535.2,286047010.2,N
1542575555.1,286047011.7,N
1542575556.0,286047011.7,N
1542575575.8,286047010.0,N
1542575595.7,286047009.0,N
1542575615.5,286047004.8,N
1542575635.3,286047003.4,N
1542575655.2,286047001.4,N
1542575675.0,286047001.6,N
1542575675.9,286047001.6,N
1542575695.7,286047001.5,N
1542575715.6,286047000.3,N
1542575735.4,286046998.5,N
1542575755.3,286047000.3,N
1542575775.1,286047001.4,N
1542575776.0,286047001.4,N
1542575795.8,286047003.8,N
1542575815.7,286047003.7,N
1542575835.5,286047003.9,N
1542575855.4,286047004.3,N
1542575875.2,286047002.9,N
1542575895.0,286047007.1,N
1542575895.9,286047007.1,N
1542575915.8,286047004.6,N
1542575935.6,286047005.6,N
1542575955.4,286047003.4,N
1542575975.3,286047003.9,N
1542575995.1,286047003.7,N
1542576015.8,286047001.3,N
1542576035.7,286047002.6,N
1542576055.5,286047001.9,N
1542576075.4,286047001.6,N
1542576095.2,286047004.3,N
1542576115.0,286047003.9,N
1542576115.9,286047003.9,N
1542576135.8,286047002.5,N
1542576155.6,286047004.3,N
1542576175.4,286047000.7,N
1542576195.3,286047000.3,N
1542576215.1,286047001.6,N
1542576235.9,286047002.3,N
1542576255.7,286046999.5,N
1542576275.5,286046995.4,N
1542576295.4,286046995.6,N
1542576315.2,286046997.7,N
1542576335.0,286046997.2,N
1542576335.9,286046997.2,N
1542576355.8,286046998.8,N
1542576375.6,286046999.6,N
1542576395.5,286046996.8,N
1542576415.3,286046997.2,N
1542576435.1,286046994.9,N
1542576455.9,286046998.0,N
1542576475.7,286046997.3,N
1542576495.5,286046997.9,N
1542576515.4,286046995.1,N
1542576535.2,286046995.5,N
1542576555.1,286046996.5,N
1542576556.0,286046996.5,N
1542576575.8,286046997.7,N
1542576595.6,286046996.1,N
1542576615.5,286046995.4,N
1542576635.3,286046997.5,N
1542576655.1,286046994.9,N
1542576675.9,286046995.2,N
1542576695.7,286046995.2,N
1542576715.6,286046998.9,N
1542576735.4,286046999.1,N
1542576755.2,286046999.0,N
1542576775.1,286046997.7,N
1542576776.0,286046997.7,N
1542576795.8,286046998.8,N
1542576815.6,286046999.6,N
1542576835.5,286046996.9,N
1542576855.3,286046996.8,N
1542576875.1,286046997.1,N
1542576895.9,286046997.9,N
1542576915.7,286046998.0,N
1542576935.6,286046994.9,Y
1542576955.4,286046998.1,P
1542576975.2,286046999.0,N
1542576995.1,286046997.1,P
1542576996.0,286046997.1,Y
1542577015.8,286047002.0,P
1542577035.7,286047002.0,N
1542577055.5,286047002.2,N
1542577075.3,286047002.3,N
1542577095.2,286047001.8,N
1542577115.0,286047001.6,N
1542577115.9,286047001.6,N
1542577135.7,286047000.8,N
1542577155.6,286047000.9,N
1542577175.4,286047001.1,N
1542577195.3,286046998.8,N
1542577215.1,286046996.6,N
1542577216.0,286046996.6,N
1542577235.8,286046999.2,N
1542577255.7,286046998.2,N
1542577275.5,286046998.4,N
1542577295.3,286046998.5,N
1542577315.2,286046999.3,N
1542577335.0,286047001.1,N
1542577335.9,286047001.1,N
1542577355.8,286046998.3,N
1542577375.6,286047000.4,N
1542577395.4,286047000.1,N
1542577415.3,286047001.7,N
1542577435.1,286047004.3,N
1542577436.0,286047004.3,N
1542577455.8,286047004.1,N
1542577475.7,286047005.4,N
1542577495.5,286047007.0,Y
1542577515.4,286047003.8,P
1542577535.2,286047001.4,N
1542577555.0,286047001.4,N
1542577555.9,286047001.4,N
1542577575.8,286047002.4,N
1542577595.6,286047000.0,N
1542577615.4,286047002.0,N
1542577635.3,286046998.4,N
1542577655.1,286046997.4,N
1542577675.8,286046998.5,N
1542577695.7,286047001.2,N
1542577715.5,286047000.4,N
1542577735.4,286046999.2,N
1542577755.2,286047000.7,N
1542577775.0,286047000.2,N
1542577775.9,286047000.2,N
1542577795.8,286047001.0,N
1542577815.6,286047000.1,N
1542577835.4,286046998.1,N
1542577855.3,286046998.4,N
1542577875.1,286046999.5,N
1542577895.9,286046998.9,N
1542577915.7,286046998.6,N
1542577935.5,286046999.3,N
1542577955.4,286046997.5,N
1542577975.2,286046997.1,N
1542577995.0,286046995.1,Y
1542577995.9,286046995.1,P
1542578015.8,286046997.7,N
1542578035.6,286046999.3,N
1542578055.5,286046998.8,N
1542578075.3,286046997.4,N
1542578095.1,286046999.3,N
1542578115.9,286046999.0,N
1542578135.7,286046997.5,N
1542578155.6,286046999.6,N
1542578175.4,286046998.1,N
1542578195.2,286046998.6,N
1542578215.1,286046999.8,N
1542578216.0,286046999.8,N
1542578235.8,286047005.6,Y
1542578255.6,286047007.2,P
1542578275.5,286047006.3,N
1542578295.3,286047007.0,N
1542578315.2,286047004.6,N
1542578335.9,286047006.1,N
1542578355.7,286047009.2,Y
1542578375.6,286047000.1,P
1542578395.4,286047002.5,N
